This is the latest recevied weather packets stored in our database for station/object IZ1UQG-1. If no packets are shown the sender has not sent any weather packets the latest 1 day(s).
| Time | Temp. | Humidity | Pressure | Rain* | Wind** | Luminosity | Snow |
|---|---|---|---|---|---|---|---|
| 1778027934 | 13.89° C | 80% | 1011.1 hPa | 108.46 mm | - | - | - |
| 1778027634 | 13.89° C | 80% | 1011.2 hPa | 157.73 mm | - | - | - |
| 1778027334 | 13.89° C | 80% | 1011.2 hPa | 138.94 mm | - | - | - |
| 1778027034 | 13.89° C | 79% | 1011.4 hPa | 121.92 mm | - | - | - |
| 1778026734 | 13.89° C | 79% | 1011.4 hPa | 108.97 mm | - | - | - |
| 1778026434 | 13.89° C | 79% | 1011.3 hPa | 164.85 mm | - | - | - |
| 1778016235 | 13.89° C | 79% | 1012.7 hPa | 13.72 mm | - | - | - |
| 1778015335 | 13.89° C | 79% | 1012.9 hPa | 45.72 mm | - | - | - |
| 1778010835 | 14.44° C | 78% | 1012.9 hPa | 117.35 mm | - | - | - |
| 1778010535 | 14.44° C | 78% | 1012.8 hPa | 120.4 mm | - | - | - |
| 1778010235 | 14.44° C | 78% | 1012.8 hPa | 147.83 mm | - | - | - |
| 1778009935 | 14.44° C | 78% | 1012.7 hPa | 157.73 mm | - | - | - |
| 1778009635 | 14.44° C | 78% | 1012.6 hPa | 169.67 mm | - | - | - |
| 1778009335 | 14.44° C | 78% | 1012.7 hPa | 181.61 mm | - | - | - |
| 1778009035 | 14.44° C | 78% | 1012.6 hPa | 150.88 mm | - | - | - |
| 1778008735 | 14.44° C | 78% | 1012.6 hPa | 207.52 mm | - | - | - |
| 1778008435 | 14.44° C | 78% | 1012.7 hPa | 192.28 mm | - | - | - |
| 1778008135 | 14.44° C | 78% | 1012.7 hPa | 218.69 mm | - | - | - |
| 1778007835 | 14.44° C | 78% | 1012.6 hPa | 246.38 mm | - | - | - |
| 1778007235 | 14.44° C | 78% | 1012.5 hPa | 49.28 mm | - | - | - |
| 1778006935 | 14.44° C | 78% | 1012.4 hPa | 17.53 mm | - | - | - |
| 1778006635 | 14.44° C | 78% | 1012.4 hPa | 60.71 mm | - | - | - |
| 1778006335 | 14.44° C | 78% | 1012.5 hPa | 54.86 mm | - | - | - |
| 1778006035 | 14.44° C | 78% | 1012.6 hPa | 125.48 mm | - | - | - |
| 1778005735 | 14.44° C | 78% | 1012.5 hPa | 92.71 mm | - | - | - |
* Rain latest hour (hover to see other rain measurements)
** Current wind speed in m/s (hover to see current wind gust speed)